格洛纳斯-754 COSMOS 2141 [GLONASS]

导读 | 星芒AI

COSMOS 2141 是一颗俄罗斯 GLONASS 卫星,于 1992 年发射,用于提供全球导航和定位服务。它属于苏联/俄罗斯 GLONASS 卫星导航系统的一部分,旨在与美国的 GPS 系统竞争。该卫星运行在中地球轨道,设计寿命约为 5 年。COSMOS 2141 在其服役期间为俄罗斯及国际用户提供定位、导航和时间同步功能。然而,随着 GLONASS 系统的更新换代,该卫星最终退役并进入轨道衰减阶段。

基本信息
目录编号:
21218
目录名称:
COSMOS 2141 (GLONASS)
国际标识:
1991-025C
轨道中心:
EARTH
卫星名称:
格洛纳斯-754
卫星全名:
格洛纳斯-754 COSMOS 2141 [GLONASS]
卫星状态:
在轨 (已飞行12630 天)
发射日期:
1991-04-04 UTC
国别 :
俄罗斯(独联体) (CIS)
星等 :
--
轨道信息
数据来源 国际轨道数据 AOE轨道数据
星历时间 2025-10-30T19:08:25+0800
1天前
查看轨道信息
2025-10-30T05:00:00+0800
2天前
查看轨道信息
半长轴 25507.929km 25507.881km
偏心率 0.0006294 0.0006294
轨道倾角 64.496° 64.496°
近地点辐角 233.437° 233.998°
升交点赤经 312.251° 312.271°
平近点角 302.172° 209.611°
近地点 19113.739km 19113.691km
远地点 19145.849km 19145.801km
周期 675.729分钟 675.727分钟
每日圈数 2.131032 2.131038
详细信息
平衡模式:
三轴稳定
覆盖范围:
全球
运营商:
列舍特涅夫卫星信息系统
运营商所在国:
俄罗斯
制造商(研发单位):
列舍特涅夫卫星信息系统
制造商所在国:
俄罗斯
使用方式:
暂无
卫星简介
格洛纳斯(GLONASS )是苏联/俄罗斯研制卫星导航系统。标准配置为24颗卫星,其中18颗卫星就能保证该系统为俄罗斯境内用户提供全部服务。该卫星已退役。
2D轨道图
3D轨道图
轨道高度分析图
轨道倾角分析图
轨道综合分析图
查看轨道综合分析图